Weather History for KSVN - December, 2013

Change the Weather History Date:

Wednesday, December 4, 2013

  Actual Average Record
Temperature  
Mean Temperature 66 °F -  
Max Temperature 78 °F 64 °F 80 °F (1998)
Min Temperature 55 °F 43 °F 30 °F (2000)
Cooling Degree Days 2    
Growing Degree Days 16 (Base 50)    
Moisture  
Dew Point 58 °F    
Average Humidity 90    
Maximum Humidity 100    
Minimum Humidity 52    
Precipitation  
Precipitation 0.00 in - - ()
Sea Level Pressure  
Sea Level Pressure 30.03 in    
Wind  
Wind Speed 4 mph (South)    
Max Wind Speed 8 mph    
Max Gust Speed -    
Visibility 7 miles    
Events Fog    
Averages and records for this station are not official NWS values.
T = Trace of Precipitation, MM = Missing Value Source: NWS Daily Summary

Daily Weather History Graph

Daily Weather History Graph

Search for Another Location

Airport or City:

Trip Planner

Search our weather history database for the weather conditions in past years. The results will help you decide how hot, cold, wet, or windy it might be!

Date:

Astronomy

Dec. 04, 2013 Rise Set
Actual Time 7:09 AM EST 5:19 PM EST
Civil Twilight 6:43 AM EST 5:46 PM EST
Nautical Twilight 6:12 AM EST 6:16 PM EST
Astronomical Twilight 5:43 AM EST 6:46 PM EST
Moon 8:38 AM EST (12/4) 7:25 PM EST (12/4)
Length of Visible Light 11h 03m
Length of Day
10h 09m
Waxing Crescent, 4% of the Moon is Illuminated
Dec 4
Waxing Crescent
Dec 9
First Quarter
Dec 17
Full
Dec 25
Last Quarter
Jan 1
New

Hourly Weather History & Observations

Time (EST) Temp. Dew Point Humidity Pressure Visibility Wind Dir Wind Speed Gust Speed Precip Events Conditions
12:58 AM 62.4 °F 58.5 °F 87% 29.97 in 10.0 mi South 6.9 mph - N/A   Mostly Cloudy
1:58 AM 63.5 °F 57.7 °F 81% 29.97 in 10.0 mi Variable 6.9 mph - N/A   Overcast
2:58 AM 62.4 °F 57.6 °F 84% 29.97 in 10.0 mi South 4.6 mph - N/A   Overcast
3:58 AM 60.8 °F 57.6 °F 89% 29.98 in 10.0 mi South 2.3 mph - N/A   Partly Cloudy
4:58 AM 59.0 °F 56.7 °F 92% 29.98 in 10.0 mi South 2.3 mph - N/A   Partly Cloudy
5:58 AM 57.9 °F 56.3 °F 94% 29.99 in 10.0 mi Calm Calm - N/A   Partly Cloudy
6:08 AM 57.2 °F 55.4 °F 94% 29.98 in 5.0 mi SSE 3.5 mph - N/A   Partly Cloudy
6:13 AM 55.4 °F 55.4 °F 100% 29.98 in 4.0 mi South 3.5 mph - N/A   Partly Cloudy
6:18 AM 57.2 °F 55.4 °F 94% 29.99 in 6.0 mi South 3.5 mph - N/A   Clear
6:23 AM 57.2 °F 57.2 °F 100% 29.98 in 10.0 mi SSE 3.5 mph - N/A   Clear
6:53 AM 55.4 °F 55.4 °F 100% 29.99 in 8.0 mi Calm Calm - N/A   Clear
6:58 AM 55.8 °F 55.0 °F 97% 30.01 in 4.0 mi Calm Calm - N/A   Clear
7:03 AM 55.4 °F 55.4 °F 100% 30.00 in 1.0 mi Calm Calm - N/A   Partly Cloudy
7:08 AM 55.4 °F 55.4 °F 100% 30.00 in 0.5 mi Calm Calm - N/A Fog Fog
7:13 AM 55.4 °F 55.4 °F 100% 30.00 in 0.2 mi Calm Calm - N/A Fog Fog
7:18 AM 55.4 °F 55.4 °F 100% 30.00 in 0.5 mi Calm Calm - N/A Fog Fog
7:23 AM 57.2 °F 55.4 °F 94% 30.01 in 1.0 mi Calm Calm - N/A   Mostly Cloudy
7:28 AM 57.2 °F 57.2 °F 100% 30.01 in 3.0 mi Calm Calm - N/A   Mostly Cloudy
7:33 AM 57.2 °F 55.4 °F 94% 30.01 in 2.0 mi Calm Calm - N/A   Mostly Cloudy
7:38 AM 57.2 °F 57.2 °F 100% 30.01 in 1.2 mi Calm Calm - N/A   Mostly Cloudy
7:40 AM 55.4 °F 55.4 °F 100% 30.02 in 7.0 mi Calm Calm - N/A   Mostly Cloudy
8:01 AM 57.2 °F 57.2 °F 100% 30.03 in 8.0 mi Calm Calm - N/A   Partly Cloudy
8:58 AM 65.5 °F 60.8 °F 85% 30.04 in 10.0 mi SW 5.8 mph - N/A   Clear
9:58 AM 70.2 °F 62.2 °F 76% 30.07 in 10.0 mi WSW 8.1 mph - N/A   Clear
10:58 AM 73.0 °F 63.7 °F 72% 30.07 in 10.0 mi SW 6.9 mph - N/A   Clear
11:58 AM 75.6 °F 63.7 °F 66% 30.05 in 10.0 mi WSW 8.1 mph - N/A   Clear
12:58 PM 77.7 °F 61.9 °F 58% 30.02 in 10.0 mi SW 6.9 mph - N/A   Clear
1:58 PM 76.5 °F 60.8 °F 58% 30.01 in 10.0 mi WSW 5.8 mph - N/A   Clear
2:58 PM 78.4 °F 59.4 °F 52% 29.99 in 10.0 mi West 6.9 mph - N/A   Clear
3:58 PM 77.9 °F 59.7 °F 53% 30.00 in 10.0 mi WSW 6.9 mph - N/A   Mostly Cloudy
4:58 PM 73.0 °F 60.3 °F 64% 30.02 in 10.0 mi SSW 4.6 mph - N/A   Clear
5:58 PM 66.2 °F 61.9 °F 86% 30.04 in 10.0 mi SSE 5.8 mph - N/A   Clear
6:58 PM 63.5 °F 61.2 °F 92% 30.06 in 10.0 mi South 2.3 mph - N/A   Clear
7:58 PM 62.6 °F 60.8 °F 94% 30.07 in 10.0 mi SSE 3.5 mph - N/A   Clear
8:58 PM 60.8 °F 60.8 °F 100% 30.08 in 4.0 mi Calm Calm - N/A   Clear
9:38 PM 59.0 °F 59.0 °F 100% 30.07 in 10.0 mi SSE 2.3 mph - N/A   Clear
9:58 PM 59.7 °F 59.4 °F 99% 30.10 in 9.0 mi South 2.3 mph - N/A   Clear
10:13 PM 59.0 °F 59.0 °F 100% 30.09 in 3.0 mi SSE 1.2 mph - N/A   Clear
10:18 PM 59.0 °F 59.0 °F 100% 30.09 in 2.5 mi Calm Calm - N/A   Clear
10:23 PM 59.0 °F 59.0 °F 100% 30.09 in 3.0 mi SSE 3.5 mph - N/A   Clear
10:28 PM 60.8 °F 60.8 °F 100% 30.09 in 7.0 mi SSE 3.5 mph - N/A   Clear
10:48 PM 60.8 °F 60.8 °F 100% 30.09 in 10.0 mi SE 4.6 mph - N/A   Clear
10:58 PM 60.1 °F 60.1 °F 100% 30.10 in 10.0 mi SE 3.5 mph - N/A   Partly Cloudy
11:58 PM 62.2 °F 61.9 °F 99% 30.10 in 10.0 mi SSE 4.6 mph - N/A   Mostly Cloudy